sat.trackr.live / text

‹ back to catalog

STARLINK-5780

NORAD 57150 · 2023-090BB

PAYLOAD ACTIVE UNKNOWN

§ Identity

Operator
Country
US
Launch date
2023-06-23
Launch site
AFETR
Launch vehicle
Mass (kg)
RCS (m²)

Purposes: comms

External: N2YO · Heavens-Above · Gunter

§ Orbital elements

Epoch: 2026-05-25T03:19:44.715072Z

Period
94.32 min
Inclination
43.0017°
Eccentricity
0.0001675
Mean motion
15.26749703 rev/d
Perigee alt
484.4 km
Apogee alt
486.7 km
Semi-major
6,863.7 km
B*
-8.0340e-5
RAAN
198.5545°
Arg perigee
262.8497°
Mean anomaly
97.2164°
Rev number
16,215

§ Raw data

STARLINK-57801 57150U 23090BB  26145.13871198 -.00002415  00000+0 -80340-4 0  99902 57150  43.0017 198.5545 0001675 262.8497  97.2164 15.26749703162157

JSON: /api/v1/satellites/57150 · /tle

For live sub-satellite position, see the globe view (requires WebGL).

§ Visibility from observer

Set your observer location to see the next 7 days of passes ≥ 10°. The values pass through the URL so the page stays shareable.

No JS? Fill the form by hand. The geolocation button needs JavaScript.